Location: Middlebury
(44.0133°N, 73.1813°W)
Time: 15:50:14
(UTC-05:00)

ISS - Pass Details

Date: 23 January 2020
Orbit: 415 x 422 km, 51.6° (Epoch: 24 February)

Event Time Altitude Azimuth Distance (km) Brightness Sun altitude
Rises 17:43:29 0° 229° (SW) 2,367 1.4 -9.7°
Reaches altitude 10° 17:45:35 10° 226° (SW) 1,505 0.2 -10.1°
Maximum altitude 17:48:55 63° 145° (SE) 477 -3.6 -10.6°
Enters shadow 17:51:21 17° 66° (ENE) 1,142 -2.2 -11.0°
